Location: Kosice
(48.7167°N, 21.2500°E)
Time: 02:06:25
(UTC+01:00)

ISS - Pass Details

Date: 28 January 2021
Orbit: 417 x 422 km, 51.6° (Epoch: 06 March)

Event Time Altitude Azimuth Distance (km) Brightness Sun altitude
Rises 18:49:28 0° 287° (WNW) 2,376 1.3 -23.5°
Reaches altitude 10° 18:51:35 10° 291° (WNW) 1,511 0.0 -23.8°
Enters shadow 18:53:44 34° 306° (NW) 712 -2.2 -24.2°
